Location: *
(49.3500°N, 12.6000°E)
Time: 08:20:18
(UTC+00:00)

Cosmos 1802 Rocket - Pass Details

Date: 18 October 2019
Orbit: 955 x 1011 km, 82.9° (Epoch: 16 November)

Event Time Altitude Azimuth Distance (km) Brightness Sun altitude
Rises 17:49:05 0° 354° (N) 3,758 7.2 -16.2°
Reaches altitude 10° 17:51:50 10° 2° (N) 2,804 6.4 -16.6°
Maximum altitude 17:57:52 40° 71° (ENE) 1,453 4.5 -17.6°
Enters shadow 18:01:03 25° 123° (ESE) 1,925 5.0 -18.1°
